Regional Weather Roundup
Issued by NWS Newport/Morehead, NC

Current Version | Previous Version | Text Only | Print | Product List | Glossary Off
Versions: 1 2 3 4 5 6 7 8 9 10 11 12 13 14 15 16 17 18 19 20 21 22 23 24 25 26 27 28 29 30 31 32 33 34 35 36 37 38 39 40 41 42 43 44 45 46 47 48 49 50
000 ASUS42 KMHX 261825 RWRMHX WEATHER ROUNDUP FOR EASTERN NORTH CAROLINA NATIONAL WEATHER SERVICE NEWPORT/MOREHEAD CITY NC 200 PM EDT TUE SEP 26 2017 NOTE: "FAIR" INDICATES FEW OR NO CLOUDS BELOW 12,000 FEET WITH NO SIGNIFICANT WEATHER AND/OR OBSTRUCTIONS TO VISIBILITY NCZ015>017-031-032-045>047-102-103-261900- NORTH COAST CITY SKY/WX TMP DP RH WIND PRES REMARKS EDENTON PTSUNNY 83 73 71 N17G26 29.79F ELIZABETH CITY CLOUDY 78 75 90 N21G36 29.79F KITTY HAWK NOT AVBL MANTEO CLOUDY 78 72 81 NE22G31 29.72F $$ NCZ045>047-081-094-103-104-261900- CENTRAL COAST CITY SKY/WX TMP DP RH WIND PRES REMARKS FRISCO CLOUDY 78 75 90 N17G31 29.63F $$ NCZ095-097-098-100-101-261900- SOUTHERN COAST CITY SKY/WX TMP DP RH WIND PRES REMARKS BEAUFORT CLOUDY 84 73 69 N28G44 29.67F CEDAR ISLAND NOT AVBL JACKSONVILLE PTSUNNY 85 73 67 N16G25 29.74F PINEY ISLAND N/A N/A N/A N/A N25G39 29.69F WILMINGTON CLOUDY 83 72 69 NW18G25 29.78F $$ NCZ011>013-027>030-043-044-078>080-089-090>093-098-261900- COASTAL PLAIN CITY SKY/WX TMP DP RH WIND PRES REMARKS AHOSKIE CLOUDY 80 72 78 N20 29.84F CLINTON MOSUNNY 83 73 71 N7G17 29.85F ELIZABETHTOWN NOT AVBL GOLDSBORO PTSUNNY 81 76 84 N18G26 29.82F GREENVILLE PTSUNNY 82 72 69 N14G25 29.82F HAVELOCK PTSUNNY 86 72 62 N29G43 29.71F KENANSVILLE PTSUNNY 81 72 74 N16 29.82F KINSTON CLOUDY 81 72 74 N18G24 29.81F NEW BERN MOSUNNY 85 72 65 N20G31 29.75F RICHLANDS PTSUNNY 83 73 72 NW9G18 29.78F ROCKY MOUNT CLOUDY 80 72 76 N18G25 29.86F WASHINGTON PTSUNNY 83 73 69 N18G25 29.77F WHITEVILLE PTSUNNY 83 71 66 N8 29.84S $$ AMZ130-135-150-152-154-156-158-170-250-252-270-ANZ085-086-088-633-658-670-261900- MARINE OBSERVATIONS STATION/POSITION TIME TEMP WIND PRES WAVE SWELL AIR SEA DIR/SP/G HT/PER HT/PER (UTC) (F) (DEG/KT/KT) (MB) (FT/S) (FT/S) CHESAPEAKE LIGHT NOT AVBL 64 E VA BEACH 1750 73 69 20/ 23/ 29 1007.8 20/14 18/14 DUCK 1800 75 76 20/ 27/ 33 1006.9 2 E DUCK 1800 75 N/A 11/14 7/14 OREGON INLET 1800 77 76 10/ 23/ 33 1004.9 13E OREGON INLT 1748 75 N/A 19/14 18/14 HATTERAS CG 1800 77 77 10/ 33/ 40 1003.3 DIAMOND BUOY 1750 76 82 10/ 31/ 41 1000.5 19/13 15/13 CAPE LOOKOUT 1800 82 360/ 26/ 34 1003.8 BEAUFORT LAB 1800 82 74 360/ 28/ 32 1004.5 30 SE NEW RVR IN 1808 81 350/ 19/ 23 1005.1 30 SE NEW RVR IN NOT AVBL 27 SE WRIGHTSVLE 1808 79 79 310/ 19/ 29 1006.3 5 SE WRIGHTSVLE 1808 80 78 330/ 14/ 27 1007.6 225 S CAPE HAT 1750 80 80 280/ 29/ 37 1001.3 15/ 9 41 SE CHARLESTON 1810 76 81 340/ 10/ 12 1010.2 $$

USA.gov is the U.S. government's official web portal to all federal, state and local government web resources and services.